GW0655 Weather Reports


time (UTC)temp
F
wind
direction
speed
knots
gust
knots
rain 1hr
in
rain 24hr
in
rain mn
in
humidity
%
barometer
mb
20260507112326 59 10 1.7 2.6 0.00 0.00 0.00 88 1018.2
20260507111824 60 261 3.5 4.3 0.00 0.00 0.00 88 1018.5
20260507111320 60 306 2.6 2.6 0.00 0.00 0.00 87 1018.5
20260507110816 60 2 4.3 6.1 0.00 0.00 0.00 87 1018.2
20260507110313 59 345 0.9 1.7 0.00 0.00 0.00 87 1018.2
20260507105810 60 1 4.3 6.1 0.00 0.00 0.00 87 1018.5
20260507105307 60 45 3.5 4.3 0.00 0.00 0.00 87 1018.5
20260507104804 60 351 3.5 4.3 0.00 0.00 0.00 87 1018.2
20260507104300 60 10 5.2 7.0 0.00 0.00 0.00 87 1018.2
20260507103756 60 350 4.3 5.2 0.00 0.00 0.00 87 1017.9
20260507103252 60 2 4.3 5.2 0.00 0.00 0.00 87 1017.9
20260507102749 60 85 5.2 7.8 0.00 0.00 0.00 87 1017.9
20260507102246 60 4 3.5 5.2 0.00 0.00 0.00 87 1017.9
20260507101742 60 12 6.1 7.0 0.00 0.00 0.00 86 1017.9
20260507101237 60 347 5.2 6.1 0.00 0.00 0.00 86 1017.5
20260507100734 60 352 2.6 2.6 0.00 0.00 0.00 86 1017.9
20260507100233 60 344 4.3 5.2 0.00 0.00 0.00 86 1017.2
20260507095730 60 12 3.5 5.2 0.00 0.00 0.00 86 1017.9
20260507095226 60 19 2.6 2.6 0.00 0.00 0.00 86 1017.9
20260507094723 60 295 2.6 4.3 0.00 0.00 0.00 86 1017.5
20260507094220 60 332 3.5 4.3 0.00 0.00 0.00 86 1017.5
20260507093717 60 24 1.7 2.6 0.00 0.00 0.00 86 1017.5
20260507093216 60 358 5.2 6.1 0.00 0.00 0.00 85 1017.2
20260507092713 60 43 4.3 6.1 0.00 0.00 0.00 85 1017.5
20260507092209 60 15 3.5 4.3 0.00 0.00 0.00 85 1017.2
20260507091705 60 5 3.5 5.2 0.00 0.00 0.00 85 1017.5
20260507091202 60 4 3.5 4.3 0.00 0.00 0.00 85 1017.2
20260507090657 60 336 3.5 4.3 0.00 0.00 0.00 85 1017.2
20260507090155 60 15 3.5 4.3 0.00 0.00 0.00 85 1017.2
20260507085652 61 356 1.7 1.7 0.00 0.00 0.00 85 1017.2
20260507085148 61 349 1.7 1.7 0.00 0.00 0.00 85 1017.5
20260507084646 61 5 1.7 1.7 0.00 0.00 0.00 85 1017.2
20260507084142 61 358 2.6 2.6 0.00 0.00 0.00 84 1017.2
20260507083639 61 340 2.6 2.6 0.00 0.00 0.00 84 1017.5
20260507083136 61 8 3.5 4.3 0.00 0.00 0.00 84 1017.2
20260507082631 61 287 0.0 0.0 0.00 0.00 0.00 85 1017.2
20260507082128 61 341 3.5 4.3 0.00 0.00 0.00 85 1017.2
20260507081625 61 20 0.9 0.9 0.00 0.00 0.00 85 1016.9
20260507081121 61 323 0.9 1.7 0.00 0.00 0.00 85 1016.9
20260507080618 61 333 1.7 1.7 0.00 0.00 0.00 84 1016.5
20260507080114 61 334 0.9 0.9 0.00 0.00 0.00 85 1016.9
20260507075609 61 332 0.9 1.7 0.00 0.00 0.00 85 1016.9
20260507075105 61 334 2.6 2.6 0.00 0.00 0.00 85 1016.5
20260507074603 61 18 1.7 1.7 0.00 0.00 0.00 85 1016.5
20260507074101 61 320 0.9 1.7 0.00 0.00 0.00 85 1016.9
20260507073556 61 353 2.6 2.6 0.00 0.00 0.00 85 1016.5
20260507073053 61 19 0.9 0.9 0.00 0.00 0.00 84 1017.2
20260507072550 61 257 0.0 0.0 0.00 0.00 0.00 84 1017.2
20260507072048 61 331 1.7 1.7 0.00 0.00 0.00 84 1016.9
20260507071545 61 341 2.6 2.6 0.00 0.00 0.00 84 1016.9
20260507071041 61 345 1.7 1.7 0.00 0.00 0.00 84 1016.9
20260507070538 61 327 1.7 1.7 0.00 0.00 0.00 83 1016.9
20260507070035 61 337 2.6 2.6 0.00 0.00 0.00 83 1017.2
20260507065532 61 302 1.7 1.7 0.00 0.00 0.00 83 1017.2
20260507065029 61 343 1.7 1.7 0.00 0.00 0.00 83 1016.9
20260507064527 61 322 0.9 0.9 0.00 0.00 0.00 83 1017.2
20260507064025 61 57 0.0 0.9 0.00 0.00 0.00 83 1017.2
20260507063522 61 324 0.9 0.9 0.00 0.00 0.00 83 1016.9
20260507063020 62 329 0.9 1.7 0.00 0.00 0.00 83 1016.2
20260507062516 62 305 2.6 4.3 0.00 0.00 0.00 82 1016.5
20260507062014 62 43 4.3 5.2 0.00 0.00 0.00 82 1016.9
20260507061511 62 17 1.7 1.7 0.00 0.00 0.00 82 1016.9
20260507061009 62 347 1.7 1.7 0.00 0.00 0.00 82 1016.9
20260507060506 62 338 3.5 4.3 0.00 0.00 0.00 82 1016.9
20260507060003 62 358 3.5 4.3 0.00 0.00 0.00 82 1016.5
20260507055458 62 337 2.6 2.6 0.00 0.00 0.00 81 1016.5
20260507054955 62 2 3.5 4.3 0.00 0.00 0.00 81 1016.5
20260507054450 62 19 1.7 1.7 0.00 0.00 0.00 81 1016.9
20260507053948 62 7 4.3 4.3 0.00 0.00 0.00 80 1016.9
20260507053446 62 358 3.5 4.3 0.00 0.00 0.00 80 1016.9
20260507052944 62 307 0.9 1.7 0.00 0.00 0.00 80 1016.9
20260507052441 62 338 3.5 6.1 0.00 0.00 0.00 80 1016.9
20260507051938 62 5 4.3 5.2 0.00 0.00 0.00 80 1016.5
20260507051436 62 357 2.6 2.6 0.00 0.00 0.00 81 1016.9
20260507050932 62 5 5.2 6.1 0.00 0.00 0.00 81 1016.5
20260507050429 62 326 3.5 4.3 0.00 0.00 0.00 81 1016.5
20260507045926 62 349 2.6 4.3 0.00 0.00 0.00 81 1016.5
20260507045422 62 337 2.6 2.6 0.00 0.00 0.00 81 1016.9
20260507044920 62 349 3.5 4.3 0.00 0.00 0.00 81 1016.5
20260507044416 62 27 2.6 2.6 0.00 0.00 0.00 81 1016.2
20260507043912 62 39 0.9 1.7 0.00 0.00 0.00 81 1016.9
20260507043409 63 45 1.7 1.7 0.00 0.00 0.00 81 1016.9
20260507042905 63 10 1.7 2.6 0.00 0.00 0.00 81 1016.9
20260507042402 63 11 1.7 1.7 0.00 0.00 0.00 81 1016.5
20260507041857 63 12 1.7 2.6 0.00 0.00 0.00 81 1016.5
20260507041355 63 20 2.6 4.3 0.00 0.00 0.00 81 1016.5
20260507040852 63 10 2.6 5.2 0.00 0.00 0.00 81 1016.5
20260507040348 63 7 2.6 2.6 0.00 0.00 0.00 81 1016.5
20260507035844 63 6 2.6 4.3 0.00 0.00 0.00 81 1016.2
20260507035340 63 346 4.3 5.2 0.00 0.00 0.00 81 1016.9
20260507034837 63 346 1.7 1.7 0.00 0.00 0.00 81 1016.9
20260507034334 63 10 4.3 5.2 0.00 0.00 0.00 81 1016.5
20260507033832 63 349 2.6 4.3 0.00 0.00 0.00 81 1016.2
20260507033330 63 8 3.5 4.3 0.00 0.00 0.00 81 1016.2
20260507032826 63 338 4.3 5.2 0.00 0.00 0.00 81 1015.8
20260507032322 63 342 5.2 7.0 0.00 0.00 0.00 81 1016.5
20260507031819 63 347 3.5 5.2 0.00 0.00 0.00 81 1016.5
20260507031316 63 352 3.5 4.3 0.00 0.00 0.00 81 1016.5
20260507030812 63 0 3.5 4.3 0.00 0.00 0.00 81 1016.2
20260507030310 63 352 2.6 2.6 0.00 0.00 0.00 81 1016.2
20260507025807 63 25 3.5 5.2 0.00 0.00 0.00 80 1016.2
20260507025306 63 39 1.7 1.7 0.00 0.00 0.00 80 1015.8
20260507024802 63 350 2.6 4.3 0.00 0.00 0.00 80 1015.5
20260507024259 63 28 3.5 5.2 0.00 0.00 0.00 80 1015.5
20260507023755 64 0 5.2 6.1 0.00 0.00 0.00 80 1016.2
20260507023252 64 9 2.6 4.3 0.00 0.00 0.00 80 1016.2
20260507022749 64 337 3.5 5.2 0.00 0.00 0.00 80 1016.2
20260507022245 64 12 2.6 2.6 0.00 0.00 0.00 80 1015.5
20260507021741 64 44 2.6 2.6 0.00 0.00 0.00 80 1015.5
20260507021237 64 352 3.5 4.3 0.00 0.00 0.00 80 1015.5
20260507020735 64 335 2.6 4.3 0.00 0.00 0.00 80 1015.5
20260507020232 64 309 2.6 2.6 0.00 0.00 0.00 80 1015.5
20260507015729 64 2 0.0 0.9 0.00 0.00 0.00 80 1015.2
20260507015226 64 333 2.6 2.6 0.00 0.00 0.00 80 1015.2
20260507014723 64 330 1.7 1.7 0.00 0.00 0.00 80 1015.2
20260507014219 64 50 0.9 1.7 0.00 0.00 0.00 79 1014.8
20260507013716 64 34 0.0 0.9 0.00 0.00 0.00 79 1014.8
20260507013214 64 48 2.6 2.6 0.00 0.00 0.00 79 1014.8
20260507012711 64 341 1.7 1.7 0.00 0.00 0.00 79 1015.2
20260507012206 64 319 1.7 1.7 0.00 0.00 0.00 79 1014.8
20260507011704 64 330 1.7 1.7 0.00 0.00 0.00 79 1014.5
20260507011200 64 4 2.6 4.3 0.00 0.00 0.00 79 1014.5
20260507010700 64 331 1.7 2.6 0.00 0.00 0.00 79 1014.5
20260507010156 64 9 2.6 2.6 0.00 0.00 0.00 79 1014.5
20260507005654 64 356 2.6 4.3 0.00 0.00 0.00 79 1014.5
20260507005154 64 280 2.6 2.6 0.00 0.00 0.00 79 1014.1
20260507004651 64 11 4.3 5.2 0.00 0.00 0.00 79 1013.8
20260507004149 64 337 2.6 2.6 0.00 0.00 0.00 79 1013.8
20260507003646 64 349 4.3 5.2 0.00 0.00 0.00 79 1014.1
20260507003145 64 359 2.6 4.3 0.00 0.00 0.00 79 1014.1
20260507002642 64 9 3.5 4.3 0.00 0.00 0.00 79 1014.5
20260507002138 64 358 3.5 5.2 0.00 0.00 0.00 79 1014.1
20260507001635 64 355 4.3 6.1 0.00 0.00 0.00 79 1014.1
20260507001132 64 25 2.6 2.6 0.00 0.00 0.00 79 1013.8
20260507000629 64 334 3.5 4.3 0.00 0.00 0.00 78 1014.1
20260507000124 64 356 4.3 5.2 0.00 0.00 0.00 78 1013.8
20260506235622 64 25 3.5 4.3 0.00 0.00 0.00 78 1013.8
20260506235122 64 37 3.5 5.2 0.00 0.00 0.00 78 1014.1
20260506234619 64 348 2.6 4.3 0.00 0.00 0.00 78 1013.8
20260506234116 64 17 2.6 4.3 0.00 0.00 0.00 78 1013.8
20260506233613 64 347 2.6 4.3 0.00 0.00 0.00 78 1013.8
20260506233110 64 325 2.6 4.3 0.00 0.00 0.00 78 1013.8
20260506232606 64 313 3.5 4.3 0.00 0.00 0.00 78 1013.8
20260506232102 64 7 4.3 6.1 0.00 0.00 0.00 78 1013.5
20260506231559 65 353 3.5 4.3 0.00 0.00 0.00 77 1013.8
20260506231058 65 346 3.5 4.3 0.00 0.00 0.00 77 1013.8
20260506230554 64 41 5.2 7.0 0.00 0.00 0.00 77 1013.5
20260506230051 65 209 3.5 6.1 0.00 0.00 0.00 77 1013.8
20260506225548 65 347 4.3 5.2 0.00 0.00 0.00 77 1013.5
20260506225044 65 15 4.3 6.1 0.00 0.00 0.00 76 1013.5
20260506224541 65 32 3.5 6.1 0.00 0.00 0.00 76 1013.5
20260506224038 65 6 2.6 4.3 0.00 0.00 0.00 76 1013.8
20260506223533 66 27 4.3 6.1 0.00 0.00 0.00 75 1013.5
20260506223030 66 6 7.0 8.7 0.00 0.00 0.00 74 1013.1
20260506222527 67 354 3.5 4.3 0.00 0.00 0.00 75 1013.5
20260506222023 67 3 4.3 5.2 0.00 0.00 0.00 75 1013.5
20260506221521 67 1 4.3 6.1 0.00 0.00 0.00 75 1013.5
20260506221019 67 359 3.5 5.2 0.00 0.00 0.00 74 1013.5
20260506220514 67 60 2.6 2.6 0.00 0.00 0.00 74 1013.5
20260506220010 68 351 6.1 7.0 0.00 0.00 0.00 73 1013.5
20260506215508 68 266 2.6 4.3 0.00 0.00 0.00 73 1013.5
20260506215003 68 21 4.3 6.1 0.00 0.00 0.00 73 1013.5
20260506214500 68 17 2.6 2.6 0.00 0.00 0.00 73 1013.1
20260506213957 68 21 6.1 8.7 0.00 0.00 0.00 72 1013.1
20260506213455 69 354 3.5 4.3 0.00 0.00 0.00 72 1013.1
20260506212952 69 3 5.2 6.1 0.00 0.00 0.00 72 1013.5
20260506212448 69 12 4.3 6.1 0.00 0.00 0.00 73 1013.1
20260506211943 69 343 6.1 7.0 0.00 0.00 0.00 72 1013.1
20260506211439 70 65 4.3 5.2 0.00 0.00 0.00 72 1013.1
20260506210937 70 355 4.3 4.3 0.00 0.00 0.00 71 1013.1
20260506210433 71 18 3.5 5.2 0.00 0.00 0.00 72 1013.5
20260506205930 70 16 3.5 5.2 0.00 0.00 0.00 72 1013.5
20260506205426 70 359 3.5 4.3 0.00 0.00 0.00 73 1013.5
20260506204923 70 23 3.5 5.2 0.00 0.00 0.00 74 1013.5
20260506204421 70 337 3.5 5.2 0.00 0.00 0.00 76 1013.5
20260506203918 70 338 3.5 4.3 0.00 0.00 0.00 75 1013.5
20260506203415 70 33 3.5 5.2 0.00 0.00 0.00 76 1013.5
20260506202911 70 5 4.3 6.1 0.00 0.00 0.00 75 1013.5
20260506202409 71 356 4.3 5.2 0.00 0.00 0.00 75 1013.5
20260506201905 71 26 4.3 7.0 0.00 0.00 0.00 74 1013.1
20260506201403 72 353 6.1 6.1 0.00 0.00 0.00 74 1012.7
20260506200859 73 18 7.0 7.8 0.00 0.00 0.00 73 1012.7
20260506200355 74 352 3.5 4.3 0.00 0.00 0.00 73 1012.7
20260506195852 74 42 2.6 2.6 0.00 0.00 0.00 74 1012.7
20260506195349 74 12 2.6 2.6 0.00 0.00 0.00 74 1012.7
20260506194846 75 315 3.5 4.3 0.00 0.00 0.00 73 1012.7
20260506194343 76 7 6.1 7.8 0.00 0.00 0.00 72 1012.7
20260506193840 77 70 3.5 5.2 0.00 0.00 0.00 71 1012.4
20260506193337 76 30 2.6 4.3 0.00 0.00 0.00 72 1012.4
20260506192833 77 31 6.1 7.8 0.00 0.00 0.00 71 1012.7
20260506192330 77 7 3.5 4.3 0.00 0.00 0.00 72 1012.7
20260506191827 77 341 2.6 4.3 0.00 0.00 0.00 73 1012.7
20260506191323 77 316 2.6 4.3 0.00 0.00 0.00 72 1013.1
20260506190820 77 354 3.5 4.3 0.00 0.00 0.00 72 1012.7
20260506190316 77 347 2.6 2.6 0.00 0.00 0.00 72 1013.1
20260506185814 78 14 3.5 4.3 0.00 0.00 0.00 71 1013.1
20260506185311 78 7 2.6 2.6 0.00 0.00 0.00 71 1012.7
20260506184808 77 311 1.7 1.7 0.00 0.00 0.00 72 1012.4
20260506184305 77 320 1.7 1.7 0.00 0.00 0.00 73 1012.7
20260506183802 77 136 3.5 4.3 0.00 0.00 0.00 71 1012.7
20260506183257 76 306 2.6 2.6 0.00 0.00 0.00 73 1012.7
20260506182754 75 351 0.9 2.6 0.00 0.00 0.00 73 1012.7
20260506182251 75 1 3.5 4.3 0.00 0.00 0.00 74 1012.7
20260506181749 74 315 1.7 1.7 0.00 0.00 0.00 74 1012.7
20260506181247 74 4 2.6 4.3 0.00 0.00 0.00 75 1012.7
20260506180744 73 57 0.0 0.0 0.00 0.00 0.00 75 1012.7
20260506180239 72 349 5.2 6.1 0.00 0.00 0.00 76 1013.1
20260506175736 72 115 2.6 2.6 0.00 0.00 0.00 77 1012.7
20260506175233 72 32 0.0 0.9 0.00 0.00 0.00 78 1012.7
20260506174731 71 42 1.7 2.6 0.00 0.00 0.00 77 1012.7
20260506174227 71 17 4.3 5.2 0.00 0.00 0.00 77 1013.1
20260506173725 71 12 5.2 6.1 0.00 0.00 0.00 76 1013.1
20260506173222 71 59 0.9 1.7 0.00 0.00 0.00 77 1013.1
20260506172719 70 348 4.3 6.1 0.00 0.00 0.00 77 1013.1
20260506172215 70 14 1.7 2.6 0.00 0.00 0.00 79 1013.1
20260506171713 69 44 0.9 0.9 0.00 0.00 0.00 80 1013.1
20260506171210 69 11 2.6 5.2 0.00 0.00 0.00 81 1013.5
20260506170708 69 338 4.3 5.2 0.00 0.00 0.00 80 1013.1
20260506170204 68 24 4.3 7.0 0.00 0.00 0.00 82 1013.5
20260506165702 67 341 6.1 7.0 0.00 0.00 0.00 83 1013.5
20260506165159 67 61 1.7 2.6 0.00 0.00 0.00 84 1013.5
20260506164656 66 38 2.6 2.6 0.00 0.00 0.00 86 1013.5
20260506164153 65 23 4.3 7.8 0.00 0.00 0.00 87 1014.1
20260506163650 65 348 4.3 6.1 0.00 0.00 0.00 88 1014.5
20260506163145 65 353 4.3 6.1 0.00 0.00 0.00 89 1014.1
20260506162641 66 350 3.5 4.3 0.00 0.00 0.00 89 1014.1
20260506162139 66 354 6.1 7.0 0.00 0.00 0.00 89 1014.5
20260506161636 66 18 8.7 11.3 0.00 0.00 0.00 89 1014.1
20260506161133 66 354 7.8 11.3 0.00 0.00 0.00 88 1014.5
20260506160630 68 6 7.0 7.8 0.00 0.00 0.00 88 1014.5
20260506160127 68 13 7.8 7.8 0.00 0.00 0.00 88 1014.1
20260506155626 69 66 3.5 4.3 0.00 0.00 0.00 87 1014.1
20260506155122 77 247 0.0 0.0 0.00 0.00 0.00 89 1013.1
20260506153219 77 6 0.0 0.9 0.00 0.00 0.00 89 1013.1
20260506152715 77 51 0.0 0.0 0.00 0.00 0.00 89 1012.7
20260506152213 77 254 0.0 0.0 0.00 0.00 0.00 89 1012.7
20260506151712 77 278 0.9 0.9 0.00 0.00 0.00 89 1012.7
20260506151208 77 313 0.0 0.0 0.00 0.00 0.00 90 1012.4
20260506150704 77 233 0.0 0.0 0.00 0.00 0.00 90 1012.7
20260506150201 77 177 1.7 1.7 0.00 0.00 0.00 89 1012.4
20260506145659 77 66 0.0 0.9 0.00 0.00 0.00 89 1012.4
20260506145155 77 123 1.7 1.7 0.00 0.00 0.00 89 1012.0
20260506144653 77 191 0.0 0.9 0.00 0.00 0.00 89 1012.0
20260506144149 77 291 0.0 0.9 0.00 0.00 0.00 90 1011.7
20260506143647 77 195 1.7 2.6 0.00 0.00 0.00 90 1011.7
20260506143145 76 166 0.9 0.9 0.00 0.00 0.00 90 1011.7
20260506142643 77 171 0.9 0.9 0.00 0.00 0.00 90 1011.3
20260506142141 77 203 0.0 0.0 0.00 0.00 0.00 90 1011.3
20260506141638 77 204 0.9 0.9 0.00 0.00 0.00 89 1011.7
20260506141136 76 211 0.0 0.0 0.00 0.00 0.00 89 1012.0
20260506140633 76 163 0.9 0.9 0.00 0.00 0.00 90 1012.0
20260506140130 76 185 0.9 0.9 0.00 0.00 0.00 90 1011.7
20260506135627 76 239 0.0 0.0 0.00 0.00 0.00 90 1011.3
20260506135124 76 243 0.0 0.9 0.00 0.00 0.00 90 1011.0
20260506134620 76 210 0.9 1.7 0.00 0.00 0.00 90 1011.0
20260506134116 76 158 2.6 2.6 0.00 0.00 0.00 90 1011.0
20260506133614 76 241 0.0 0.9 0.00 0.00 0.00 90 1011.0
20260506133110 76 338 0.9 0.9 0.00 0.00 0.00 90 1011.0
20260506132608 76 176 0.9 0.9 0.00 0.00 0.00 91 1010.7
20260506132105 76 244 0.0 0.0 0.00 0.00 0.00 92 1011.0
20260506131602 76 235 0.9 0.9 0.00 0.00 0.00 92 1011.0
20260506131058 75 234 0.0 0.0 0.00 0.00 0.00 92 1010.7
20260506130555 75 92 0.9 0.9 0.00 0.00 0.00 93 1010.7
20260506130053 75 203 0.9 0.9 0.00 0.00 0.00 93 1011.0
20260506125551 75 241 0.9 0.9 0.00 0.00 0.00 93 1011.0
20260506125048 75 185 0.9 0.9 0.00 0.00 0.00 93 1010.7
20260506124546 75 156 0.9 1.7 0.00 0.00 0.00 93 1010.7
20260506124044 75 250 0.0 0.0 0.00 0.00 0.00 93 1011.0
20260506123541 74 241 0.9 0.9 0.00 0.00 0.00 93 1010.7
20260506123039 74 184 0.9 0.9 0.00 0.00 0.00 93 1010.7
20260506122535 74 238 0.0 0.0 0.00 0.00 0.00 93 1010.7
20260506122034 74 244 0.0 0.0 0.00 0.00 0.00 93 1010.7
20260506121531 74 250 0.0 0.0 0.00 0.00 0.00 93 1010.7
20260506121027 74 241 0.0 0.0 0.00 0.00 0.00 93 1010.7
20260506120525 74 233 0.0 0.9 0.00 0.00 0.00 93 1010.7
20260506120022 74 207 0.9 0.9 0.00 0.00 0.00 93 1010.7
20260506115520 74 237 0.0 0.0 0.00 0.00 0.00 93 1010.7
20260506115018 74 238 0.0 0.0 0.00 0.00 0.00 93 1010.7
20260506114515 75 235 0.0 0.0 0.00 0.00 0.00 92 1010.7
20260506114014 75 252 0.0 0.0 0.00 0.00 0.00 92 1010.7
20260506113511 75 256 0.0 0.0 0.00 0.00 0.00 92 1010.7
20260506113009 75 245 0.0 0.0 0.00 0.00 0.00 92 1010.7